星链-2417 (STARLINK-2417 )

导读 | 星芒AI

STARLINK-2417 是 SpaceX Starlink 项目中的一颗低轨通信卫星,属于第二代 Starlink 卫星(Gen2)批次。该卫星于2023年发射,旨在为全球提供高速、低延迟的互联网服务。它运行在约550公里高的近地轨道,配备先进通信设备和激光链路,以提升网络效率和卫星间通信能力。作为 Starlink 卫星群的一部分,STARLINK-2417 支持 SpaceX 扩展其全球宽带覆盖的目标,特别是在偏远和网络基础设施薄弱的地区。

基本信息
目录编号:
48096
目录名称:
STARLINK-2417
国际标识:
2021-027E
轨道中心:
EARTH
卫星名称:
星链-2417
卫星全名:
星链-2417 (STARLINK-2417 )
卫星状态:
在轨 (已飞行1716 天)
发射日期:
2021-04-07 UTC
国别 :
美国 (US)
星等 :
--
轨道信息
数据来源 国际轨道数据 AOE轨道数据
星历时间 2025-12-17T06:44:48+0800
1天前
查看轨道信息
2025-12-15T11:00:00+0800
2天前
查看轨道信息
半长轴 6925.329km 6925.343km
偏心率 0.0001608 0.0001056
轨道倾角 53.053° 53.046°
近地点辐角 89.663° 92.912°
升交点赤经 183.060° 191.244°
平近点角 270.455° 96.734°
近地点 546.08km 546.476km
远地点 548.308km 547.94km
周期 95.592分钟 95.592分钟
每日圈数 15.064066 15.064021
详细信息
固有亮度:
5
最大亮度:
2.5
卫星平台:
Starlink V1.0
覆盖范围:
全球
运营商:
太空探索技术公司
运营商所在国:
美国
制造商(研发单位):
太空探索技术公司
制造商所在国:
美国
使用方式:
暂无
卫星简介
星链(Starlink)计划是由太空探索技术公司(SpaceX)提出的一个巨型低轨卫星互联网星座项目,计划在2019年至2024年间在太空搭建由约1.2万颗卫星组成的“星链”网络,其中1584颗将部署在地球上空550千米处的近地轨道,并从2020年开始工作。该卫星仍在工作。
2D轨道图
3D轨道图
轨道高度分析图
轨道倾角分析图
轨道综合分析图
查看轨道综合分析图